Regional Weather Roundup
Issued by NWS

Home | Current Version | Previous Version | Text Only | Print | Product List | Glossary On
Versions: 1 2 3 4 5 6 7 8 9 10 11 12 13 14 15 16 17 18 19 20 21 22 23 24 25 26 27
000
ASUS45 KREV 222110
RWRNV
NEVADA REGIONAL WEATHER ROUNDUP
NATIONAL WEATHER SERVICE RENO NV
200 PM PDT TUE MAY 22 2018

NOTE: "FAIR" INDICATES FEW OR NO CLOUDS BELOW 12,000 FEET WITH NO
SIGNIFICANT WEATHER AND/OR OBSTRUCTIONS TO VISIBILITY.

NVZ001-003-004-222200-
WESTERN NEVADA

CITY           SKY/WX    TMP DP  RH WIND       PRES   REMARKS
RENO           PTSUNNY   69  43  38 E8        29.90F
CARSON CITY    FAIR      63  45  51 CALM      29.96F
MINDEN         FAIR      64  46  52 E12       29.95F
FALLON         MOSUNNY   71  47  42 CALM      29.88F
LOVELOCK       MOSUNNY   70  46  42 VRB5      29.88F
$$

NVZ002-CAZ072-073-222200-
NORTHERN AND CENTRAL SIERRA

CITY           SKY/WX    TMP DP  RH WIND       PRES   REMARKS
S. LAKE TAHOE  MOSUNNY   62  42  47 NE12      29.99F
TRUCKEE        PTSUNNY   63  41  45 SW3       29.97F
SQUAW VLY 8000 NOT AVBL
BLUE CANYON    TSTM      54  51  90 VRB3      29.99R VSB 1
MAMMOTH LAKES  FAIR      58  40  50 E6        30.03S
BRIDGEPORT     PTSUNNY   60  35  39 VRB3      29.96F
$$

NVZ030-031-036-222200-
NORTHERN NEVADA

CITY           SKY/WX    TMP DP  RH WIND       PRES   REMARKS
ELKO           MOSUNNY   72  39  30 N12G18    29.89F
WINNEMUCCA     MOSUNNY   74  46  36 VRB7      29.88F
WENDOVER       PTSUNNY   68  45  43 NW10G20   29.90F
$$

NVZ035-037-222200-
CENTRAL NEVADA

CITY           SKY/WX    TMP DP  RH WIND       PRES   REMARKS
ELY            CLOUDY    56  40  55 NW8       30.01S
EUREKA           N/A     57  40  52 S16       29.97R
$$

NVZ013-014-222200-
SOUTH CENTRAL NEVADA

CITY           SKY/WX    TMP DP  RH WIND       PRES   REMARKS
TONOPAH        LGT RAIN  61  44  53 N6        29.95R
$$

NVZ017-020-022-222200-
SOUTHERN NEVADA

CITY           SKY/WX    TMP DP  RH WIND       PRES   REMARKS
LAS VEGAS      PTSUNNY   86  33  15 NE9       29.77F
N. LAS VEGAS   PTSUNNY   82  33  17 SE10      29.77F
NELLIS AFB     PTSUNNY   84  36  18 SE14      29.76F
HENDERSON      MOSUNNY   84  34  16 E9        29.80F
MERCURY        NOT AVBL
$$




USA.gov is the U.S. government's official web portal to all federal, state and local government web resources and services.